Regional Weather Roundup
Issued by NWS Cleveland, OH

Home | Current Version | Previous Version | Text Only | Print | Product List | Glossary On
Versions: 1 2 3 4 5 6 7 8 9 10 11 12 13 14 15 16 17 18 19 20 21 22 23 24 25 26 27 28 29 30 31 32 33 34 35 36 37 38 39 40 41 42 43 44 45 46 47 48 49 50
000
ASUS41 KCLE 232302
RWRCLE
OHIO REGIONAL WEATHER ROUNDUP
NATIONAL WEATHER SERVICE CLEVELAND, OH
700 PM EDT SUN APR 23 2017

NOTE: "FAIR" INDICATES FEW OR NO CLOUDS BELOW 12,000 FEET WITH NO
SIGNIFICANT WEATHER AND/OR OBSTRUCTIONS TO VISIBILITY.

OHZ001>008-015>018-024>027-034-035-043-044-240000-
   NORTHWEST OHIO

CITY           SKY/WX    TMP DP  RH WIND       PRES   REMARKS
DEFIANCE       SUNNY     65  29  25 N9        30.03S
FINDLAY        CLOUDY    65  24  21 NE15      30.02R
TOLEDO EXPRESS CLOUDY    66  24  20 E8        30.04S
TOLEDO EXEC    CLOUDY    64  26  23 NE6       30.05F
LIMA           SUNNY     66  32  28 NE12      30.01S
$$

OHZ009>014-019>023-028>033-038-089-240000-
   NORTHEAST OHIO

CITY           SKY/WX    TMP DP  RH WIND       PRES   REMARKS
CLE-HOPKINS    CLOUDY    56  32  40 N9        30.08R
CLE-LAKEFRONT  CLOUDY    52  41  66 NE10      30.06R
CUY CO. ARPT   PTSUNNY   57  34  41 N12       30.06S
LORAIN-ELYRIA  CLOUDY    56  29  35 NE10      30.05S
ASHTABULA      CLOUDY    56  29  35 VRB3      30.07S
AKRON-CANTON   CLOUDY    66  31  27 E6        30.03R
WOOSTER        CLOUDY    63  41  44 N7        30.03R
MANSFIELD      CLOUDY    62  41  46 N9        30.04R
YOUNGSTOWN     PTSUNNY   65  33  30 N9        30.03R
$$

OHZ042-051>053-060>062-070>072-077>081-240000-
  SOUTHWEST OHIO

CITY           SKY/WX    TMP DP  RH WIND       PRES   REMARKS
CINC-COVINGTON CLOUDY    63  35  35 NE13      29.96R
CINC-LUNKEN    CLOUDY    62  43  49 NE8       29.97R
HAMILTON       PTSUNNY   64  39  39 E7        29.98R
DAYTON         CLOUDY    68  30  24 NE13      29.98S
WRIGHT-PAT AFB CLOUDY    66  30  26 NE8       29.97S
DAYTON GENERAL CLOUDY    64  34  32 NE10      29.96S
WILMINGTON     MOSUNNY   62  37  39 NE10      29.97R
$$

OHZ036-037-039>041-045>050-054>059-063>069-073>076-082>088-240000-
  CENTRAL AND SOUTHEAST OHIO

CITY           SKY/WX    TMP DP  RH WIND       PRES   REMARKS
COLUMBUS       PTSUNNY   66  32  28 E8        29.98S
OSU AIRPORT    CLOUDY    65  34  31 NE9       29.98S
BOLTON FIELD   SUNNY     66  34  30 E6        29.99S
RICKENBACK AFB MOSUNNY   64  36  34 E7        29.98S
NEWARK         CLOUDY    67  31  26 NE7       29.98S
MARION         CLOUDY    65  33  30 NE12      30.02R
LANCASTER      CLOUDY    66  33  29 E8        29.99S
ZANESVILLE     CLOUDY    66  32  28 NE9       29.99S
NEW PHILLY     NOT AVBL
$$



USA.gov is the U.S. government's official web portal to all federal, state and local government web resources and services.